�N����,����,�~����,�C��,���x,�C��,����,���ϕ���,�ő�u�ԕ���,�ő厞����,���˗�,�I�_���x,�n�����x,�ő啗���N��,DTYPE
"23/03/05","00:10",0.0,5.0,81.3,1021.1,335.5,1.8,2.9,341.4,0.00,2.1,8.8,"00:07:40",1
"23/03/05","00:20",0.0,4.6,81.9,1021.3,263.0,0.8,1.7,328.8,0.00,1.8,8.8,"00:10:10",1
"23/03/05","00:30",0.0,4.7,82.7,1020.8,328.8,1.7,4.0,337.0,0.00,2.1,8.5,"00:20:58",1
"23/03/05","00:40",0.0,4.5,83.2,1021.1,302.0,1.5,2.4,307.0,0.00,1.9,8.6,"00:36:06",1
"23/03/05","00:50",0.0,4.6,83.9,1021.1,288.2,1.5,2.0,262.1,0.00,2.2,8.7,"00:45:36",1
"23/03/05","01:00",0.0,4.7,84.0,1021.1,326.0,1.8,3.5,334.9,0.00,2.3,8.8,"00:51:42",1
"23/03/05","01:10",0.0,4.4,84.2,1021.3,313.2,1.5,3.3,319.3,0.00,2.0,8.8,"01:09:20",1
"23/03/05","01:20",0.0,4.2,84.6,1021.1,321.9,1.2,2.6,346.1,0.00,1.9,8.7,"01:19:42",1
"23/03/05","01:30",0.0,3.9,85.0,1020.8,296.0,1.0,2.2,302.6,0.00,1.7,8.6,"01:22:24",1
"23/03/05","01:40",0.0,3.9,85.6,1020.6,304.5,1.7,1.9,344.4,0.00,1.8,8.4,"01:33:48",1
"23/03/05","01:50",0.0,3.9,86.1,1020.6,308.1,1.5,1.7,266.3,0.00,1.8,8.4,"01:48:46",1
"23/03/05","02:00",0.0,3.9,86.4,1020.8,298.1,1.7,2.6,302.1,0.00,1.9,8.6,"01:55:20",1
"23/03/05","02:10",0.0,3.8,86.7,1020.8,321.4,1.3,1.7,334.1,0.00,1.8,8.5,"02:02:04",1
"23/03/05","02:20",0.0,3.6,87.1,1020.6,319.9,1.6,2.0,331.0,0.00,1.7,8.3,"02:17:22",1
"23/03/05","02:30",0.0,3.6,87.6,1020.6,318.3,1.5,1.7,325.3,0.00,1.8,8.3,"02:20:18",1
"23/03/05","02:40",0.0,3.8,87.7,1021.1,305.9,1.5,1.9,328.8,0.00,2.0,8.4,"02:30:22",1
"23/03/05","02:50",0.0,3.7,88.0,1020.8,326.3,1.5,2.0,328.6,0.00,1.9,8.3,"02:43:02",1
"23/03/05","03:00",0.0,3.6,88.1,1020.4,323.7,1.5,1.7,331.6,0.00,1.9,8.5,"02:52:20",1
"23/03/05","03:10",0.0,3.6,88.4,1020.8,322.4,1.6,2.2,322.5,0.00,1.9,8.2,"03:06:28",1
"23/03/05","03:20",0.0,3.3,88.8,1020.6,323.0,1.8,2.9,339.6,0.00,1.7,8.3,"03:19:08",1
"23/03/05","03:30",0.0,3.2,89.0,1020.6,307.5,1.6,2.2,305.5,0.00,1.6,8.3,"03:20:46",1
"23/03/05","03:40",0.0,3.2,89.2,1020.8,313.1,1.6,2.5,321.4,0.00,1.6,8.1,"03:33:56",1
"23/03/05","03:50",0.0,3.0,89.4,1021.1,316.4,1.6,2.4,319.6,0.00,1.5,7.9,"03:44:34",1
"23/03/05","04:00",0.0,2.9,89.5,1020.6,312.7,1.3,1.8,327.3,0.00,1.4,8.3,"03:52:30",1
"23/03/05","04:10",0.0,2.8,89.8,1020.6,297.3,1.5,1.9,320.0,0.00,1.3,8.3,"04:01:56",1
"23/03/05","04:20",0.0,2.7,89.9,1020.6,289.9,1.6,2.1,299.0,0.00,1.3,8.2,"04:12:28",1
"23/03/05","04:30",0.0,2.7,90.1,1020.6,296.9,1.6,2.2,309.1,0.00,1.3,8.1,"04:29:38",1
"23/03/05","04:40",0.0,2.7,90.3,1020.8,315.6,2.1,3.6,312.8,0.00,1.3,7.9,"04:31:56",1
"23/03/05","04:50",0.0,2.7,90.4,1020.6,317.6,1.8,2.2,329.0,0.00,1.3,8.0,"04:41:08",1
"23/03/05","05:00",0.0,2.6,90.6,1020.8,306.7,1.8,2.5,311.1,0.00,1.3,7.9,"04:55:08",1
"23/03/05","05:10",0.0,2.8,90.9,1021.1,299.0,2.5,4.0,309.0,0.00,1.5,7.8,"05:09:50",1
"23/03/05","05:20",0.0,2.9,90.8,1021.1,316.2,2.1,2.5,289.6,0.00,1.6,7.7,"05:10:54",1
"23/03/05","05:30",0.0,3.0,90.7,1020.6,324.5,2.1,2.9,342.2,0.00,1.7,7.7,"05:21:28",1
"23/03/05","05:40",0.0,2.9,90.7,1021.1,316.4,2.0,2.9,325.4,0.00,1.6,7.6,"05:39:58",1
"23/03/05","05:50",0.0,3.1,90.7,1021.3,329.4,2.8,3.9,309.8,0.00,1.8,7.6,"05:47:32",1
"23/03/05","06:00",0.0,2.8,90.5,1021.5,321.4,1.8,2.5,331.7,0.00,1.4,7.6,"05:53:40",1
"23/03/05","06:10",0.0,2.6,90.6,1021.3,316.4,2.2,3.2,305.9,0.00,1.3,7.7,"06:04:32",1
"23/03/05","06:20",0.0,2.4,90.7,1021.3,318.9,1.8,2.6,334.8,0.00,1.1,7.6,"06:18:26",1
"23/03/05","06:30",0.0,2.1,90.7,1021.1,311.6,1.5,2.4,319.9,0.00,0.8,7.7,"06:23:26",1
"23/03/05","06:40",0.0,1.9,91.0,1020.8,271.4,1.3,2.2,255.3,0.00,0.6,7.6,"06:37:42",1
"23/03/05","06:50",0.0,1.8,91.2,1021.1,270.8,0.8,1.3,283.7,0.00,0.6,7.6,"06:41:52",1
"23/03/05","07:00",0.0,2.0,91.4,1020.6,308.3,0.7,1.6,332.9,0.00,0.8,7.5,"06:54:04",1
"23/03/05","07:10",0.0,2.2,91.4,1021.3,280.7,1.2,2.0,314.6,0.00,1.0,7.3,"07:05:46",1
"23/03/05","07:20",0.0,2.0,91.7,1021.1,308.1,1.8,2.4,323.9,0.00,0.8,7.4,"07:14:38",1
"23/03/05","07:30",0.0,2.0,91.9,1021.3,316.3,1.8,2.5,312.8,0.00,0.9,7.4,"07:24:18",1
"23/03/05","07:40",0.0,2.4,92.1,1021.3,325.4,2.3,3.5,331.2,0.00,1.3,7.3,"07:31:18",1
"23/03/05","07:50",0.0,2.9,92.2,1021.1,302.8,2.1,3.5,306.7,0.00,1.8,7.4,"07:42:58",1
"23/03/05","08:00",0.0,3.7,92.1,1021.1,310.5,2.5,3.2,316.0,0.02,2.6,7.1,"07:56:36",1
"23/03/05","08:10",0.0,4.3,91.6,1021.5,303.3,2.0,2.9,306.9,0.03,3.1,7.2,"08:01:56",1
"23/03/05","08:20",0.0,4.6,91.0,1021.8,287.9,2.1,3.4,318.2,0.03,3.3,7.3,"08:19:46",1
"23/03/05","08:30",0.0,5.1,90.1,1022.0,295.6,2.6,3.7,322.0,0.05,3.7,7.2,"08:28:42",1
"23/03/05","08:40",0.0,5.7,88.7,1022.3,314.3,3.0,4.4,312.3,0.08,4.0,7.2,"08:36:32",1
"23/03/05","08:50",0.0,6.2,86.0,1022.5,297.6,2.2,3.2,259.1,0.06,4.1,7.2,"08:44:24",1
"23/03/05","09:00",0.0,6.1,83.3,1023.0,308.5,3.0,4.0,320.9,0.03,3.5,7.3,"08:56:16",1
"23/03/05","09:10",0.0,6.0,81.6,1023.0,322.5,3.5,4.7,315.2,0.05,3.1,7.2,"09:09:12",1
"23/03/05","09:20",0.0,6.2,80.5,1022.7,312.9,3.4,5.6,326.7,0.12,3.1,7.3,"09:10:40",1
"23/03/05","09:30",0.0,7.0,79.3,1023.2,309.0,2.7,3.9,318.0,0.20,3.7,7.3,"09:22:24",1
"23/03/05","09:40",0.0,7.8,76.9,1023.0,316.8,2.6,4.1,315.9,0.24,4.0,7.3,"09:30:40",1
"23/03/05","09:50",0.0,8.1,74.1,1023.0,331.2,2.6,6.2,341.5,0.21,3.8,7.4,"09:46:58",1
"23/03/05","10:00",0.0,8.5,72.1,1023.0,337.3,3.1,4.9,349.4,0.24,3.8,7.3,"09:53:52",1
"23/03/05","10:10",0.0,8.4,70.2,1023.2,341.8,3.0,4.8,333.0,0.20,3.3,7.4,"10:06:10",1
"23/03/05","10:20",0.0,8.6,69.2,1023.0,341.6,2.6,5.6,340.8,0.18,3.3,7.3,"10:19:24",1
"23/03/05","10:30",0.0,8.8,68.0,1022.7,339.9,2.7,4.7,348.8,0.20,3.3,7.4,"10:21:54",1
"23/03/05","10:40",0.0,9.3,66.4,1023.0,342.4,2.1,4.3,346.8,0.27,3.4,7.4,"10:37:00",1
"23/03/05","10:50",0.0,9.8,64.6,1022.7,4.1,1.3,3.9,328.1,0.30,3.5,7.5,"10:48:08",1
"23/03/05","11:00",0.0,9.7,63.6,1022.5,333.8,3.6,6.7,318.8,0.28,3.2,7.5,"10:55:36",1
"23/03/05","11:10",0.0,10.3,62.2,1022.5,340.6,3.2,6.3,337.4,0.36,3.4,7.5,"11:01:02",1
"23/03/05","11:20",0.0,10.8,59.4,1022.5,328.6,3.1,6.6,335.6,0.45,3.3,7.7,"11:19:40",1
"23/03/05","11:30",0.0,11.6,57.0,1022.3,337.8,1.8,4.7,323.9,0.53,3.4,7.6,"11:20:34",1
"23/03/05","11:40",0.0,12.8,55.4,1022.0,4.9,1.3,3.6,13.3,0.59,4.1,7.8,"11:33:44",1
"23/03/05","11:50",0.0,13.0,50.7,1021.8,357.8,1.5,3.7,117.1,0.60,3.1,7.9,"11:46:48",1
"23/03/05","12:00",0.0,13.6,50.1,1021.5,294.2,1.1,2.4,25.2,0.60,3.5,7.9,"11:52:16",1
"23/03/05","12:10",0.0,13.4,49.4,1021.5,344.2,2.0,5.4,31.4,0.62,3.1,8.0,"12:08:40",1
"23/03/05","12:20",0.0,12.2,50.5,1021.8,306.6,2.6,5.4,328.6,0.29,2.3,8.2,"12:13:28",1
"23/03/05","12:30",0.0,12.6,53.0,1021.3,294.4,2.1,5.5,244.2,0.49,3.3,8.1,"12:21:14",1
"23/03/05","12:40",0.0,13.1,50.5,1021.1,328.1,1.8,5.1,348.4,0.56,3.1,8.4,"12:37:20",1
"23/03/05","12:50",0.0,12.8,51.9,1021.1,338.3,3.2,5.7,2.5,0.60,3.2,8.4,"12:48:56",1
"23/03/05","13:00",0.0,12.2,53.5,1021.1,345.3,3.5,6.5,350.0,0.55,3.1,8.5,"12:56:16",1
"23/03/05","13:10",0.0,12.3,54.6,1020.6,345.0,3.6,6.6,326.6,0.55,3.5,8.5,"13:05:00",1
"23/03/05","13:20",0.0,12.5,52.6,1020.6,342.5,3.5,5.8,342.6,0.53,3.1,8.8,"13:14:56",1
"23/03/05","13:30",0.0,12.6,52.2,1020.4,339.5,3.9,6.7,331.9,0.57,3.1,8.7,"13:22:18",1
"23/03/05","13:40",0.0,12.9,51.0,1020.4,340.8,3.4,5.2,341.8,0.55,3.1,8.9,"13:38:08",1
"23/03/05","13:50",0.0,13.6,47.5,1019.9,5.6,1.7,3.4,327.0,0.55,2.7,9.0,"13:42:00",1
"23/03/05","14:00",0.0,14.0,45.3,1019.7,1.1,1.6,5.9,350.9,0.53,2.4,9.2,"13:57:20",1
"23/03/05","14:10",0.0,14.3,45.5,1020.1,12.6,1.6,3.2,342.4,0.52,2.7,9.1,"14:01:52",1
"23/03/05","14:20",0.0,14.0,44.3,1019.4,358.3,2.1,4.0,0.2,0.51,2.1,9.3,"14:12:40",1
"23/03/05","14:30",0.0,14.6,45.2,1019.7,328.7,1.8,3.5,335.8,0.49,2.9,9.5,"14:20:16",1
"23/03/05","14:40",0.0,14.0,44.6,1019.2,332.9,3.0,6.5,350.6,0.47,2.2,9.5,"14:35:44",1
"23/03/05","14:50",0.0,14.5,43.8,1019.4,346.1,2.1,4.4,347.1,0.45,2.4,9.8,"14:45:20",1
"23/03/05","15:00",0.0,14.6,44.4,1019.4,64.6,1.6,7.9,341.8,0.43,2.7,9.7,"14:59:20",1
"23/03/05","15:10",0.0,15.0,45.2,1019.2,334.0,2.1,5.5,343.9,0.41,3.3,9.7,"15:02:24",1
"23/03/05","15:20",0.0,14.8,44.3,1018.5,333.9,2.5,4.4,325.7,0.40,2.8,10.0,"15:17:12",1
"23/03/05","15:30",0.0,14.3,46.2,1018.7,334.7,3.5,6.4,326.6,0.38,2.9,10.1,"15:29:36",1
"23/03/05","15:40",0.0,13.5,48.3,1019.0,342.5,3.7,5.7,348.3,0.24,2.8,9.9,"15:32:40",1
"23/03/05","15:50",0.0,13.3,50.0,1019.2,344.9,4.2,6.6,343.9,0.29,3.1,10.2,"15:45:56",1
"23/03/05","16:00",0.0,12.4,51.5,1019.2,341.4,4.0,6.3,351.8,0.12,2.7,10.0,"15:50:24",1
"23/03/05","16:10",0.0,11.7,53.4,1019.2,350.1,4.1,6.5,352.1,0.10,2.6,10.3,"16:02:16",1
"23/03/05","16:20",0.0,11.3,55.8,1019.0,337.9,5.0,9.4,339.1,0.07,2.8,10.2,"16:13:28",1
"23/03/05","16:30",0.0,11.6,54.5,1019.4,342.3,2.6,4.8,351.3,0.12,2.8,10.2,"16:20:02",1
"23/03/05","16:40",0.0,12.0,52.6,1019.2,359.2,3.5,7.2,21.3,0.20,2.7,10.2,"16:31:22",1
"23/03/05","16:50",0.0,12.2,52.9,1019.2,351.9,3.2,6.7,8.3,0.17,2.9,10.3,"16:42:56",1
"23/03/05","17:00",0.0,12.2,51.3,1019.0,346.6,3.2,5.9,351.4,0.15,2.5,10.2,"16:58:16",1
"23/03/05","17:10",0.0,12.1,50.8,1019.2,343.0,3.1,5.9,350.5,0.12,2.3,10.1,"17:01:50",1
"23/03/05","17:20",0.0,11.6,50.6,1019.2,349.4,3.4,6.0,349.5,0.10,1.7,10.4,"17:17:16",1
"23/03/05","17:30",0.0,11.4,53.6,1019.2,353.4,3.5,5.6,340.8,0.07,2.4,10.3,"17:20:18",1
"23/03/05","17:40",0.0,11.1,54.9,1019.2,345.7,3.6,5.1,356.8,0.05,2.4,10.3,"17:37:06",1
"23/03/05","17:50",0.0,10.8,55.7,1019.4,342.5,4.6,5.9,348.6,0.03,2.3,10.2,"17:47:44",1
"23/03/05","18:00",0.0,10.3,56.6,1019.0,345.9,4.7,7.8,340.4,0.01,2.1,10.3,"17:56:52",1
"23/03/05","18:10",0.0,9.9,57.8,1019.2,345.4,4.0,7.5,354.9,0.00,2.0,10.2,"18:04:06",1
"23/03/05","18:20",0.0,9.5,58.8,1019.4,346.4,4.1,6.4,0.7,0.00,1.9,10.2,"18:10:26",1
"23/03/05","18:30",0.0,9.2,60.3,1019.4,345.8,3.5,5.8,340.3,0.00,2.0,10.3,"18:26:40",1
"23/03/05","18:40",0.0,8.9,61.5,1019.2,343.4,3.6,6.0,344.8,0.00,1.9,10.0,"18:32:02",1
"23/03/05","18:50",0.0,8.7,62.1,1019.7,344.5,4.6,7.2,347.7,0.00,1.9,10.0,"18:49:30",1
"23/03/05","19:00",0.0,8.4,63.3,1019.4,343.1,4.9,8.5,345.7,0.00,1.9,10.1,"18:54:40",1
"23/03/05","19:10",0.0,8.2,64.2,1019.4,348.6,5.1,8.2,348.8,0.00,1.9,10.2,"19:03:54",1
"23/03/05","19:20",0.0,8.0,65.5,1019.7,344.1,4.7,7.7,342.5,0.00,2.0,9.8,"19:12:56",1
"23/03/05","19:30",0.0,7.8,66.7,1019.4,343.6,4.0,6.6,326.2,0.00,2.0,10.0,"19:26:40",1
"23/03/05","19:40",0.0,7.6,67.4,1019.7,345.8,4.1,6.5,346.9,0.00,2.0,9.8,"19:38:16",1
"23/03/05","19:50",0.0,7.3,68.2,1019.9,336.8,4.0,6.4,338.3,0.00,1.9,9.8,"19:42:48",1
"23/03/05","20:00",0.0,7.2,68.7,1020.1,325.1,4.1,8.3,338.0,0.00,1.9,9.6,"19:55:44",1
"23/03/05","20:10",0.0,7.1,69.2,1019.9,326.5,4.9,8.1,331.9,0.00,1.9,9.8,"20:09:30",1
"23/03/05","20:20",0.0,6.9,69.5,1019.9,323.0,4.1,6.4,338.8,0.00,1.8,9.7,"20:18:34",1
"23/03/05","20:30",0.0,6.9,70.0,1019.7,326.9,4.4,6.4,329.1,0.00,1.9,9.3,"20:25:00",1
"23/03/05","20:40",0.0,6.8,70.3,1020.1,322.8,4.2,6.6,328.9,0.00,1.8,9.4,"20:34:10",1
"23/03/05","20:50",0.0,6.7,70.7,1020.1,314.5,3.4,5.6,309.2,0.00,1.8,9.5,"20:45:14",1
"23/03/05","21:00",0.0,6.6,71.0,1020.1,295.3,2.8,5.2,301.0,0.00,1.8,9.5,"20:51:44",1
"23/03/05","21:10",0.0,6.3,71.4,1020.4,292.4,2.1,3.4,324.5,0.00,1.6,9.6,"21:09:14",1
"23/03/05","21:20",0.0,6.3,72.0,1019.9,322.1,4.0,5.5,327.9,0.00,1.7,9.3,"21:17:12",1
"23/03/05","21:30",0.0,6.2,72.4,1020.4,306.0,3.2,5.4,323.9,0.00,1.7,9.6,"21:20:42",1
"23/03/05","21:40",0.0,5.8,73.2,1020.4,304.7,3.0,4.3,312.2,0.00,1.4,9.2,"21:36:14",1
"23/03/05","21:50",0.0,5.7,73.9,1020.4,325.6,3.4,4.3,333.2,0.00,1.5,9.3,"21:49:22",1
"23/03/05","22:00",0.0,5.8,74.3,1020.4,321.3,3.5,4.8,319.7,0.00,1.6,9.4,"21:51:00",1
"23/03/05","22:10",0.0,5.5,74.9,1020.1,328.9,3.6,5.0,315.8,0.00,1.4,9.1,"22:09:38",1
"23/03/05","22:20",0.0,5.4,75.6,1020.6,328.6,3.6,5.0,333.3,0.00,1.5,9.0,"22:14:04",1
"23/03/05","22:30",0.0,5.2,76.4,1020.1,338.1,3.1,4.2,337.5,0.00,1.4,9.2,"22:28:08",1
"23/03/05","22:40",0.0,5.0,77.3,1020.6,337.0,3.4,5.1,344.0,0.00,1.4,9.1,"22:32:36",1
"23/03/05","22:50",0.0,4.7,78.3,1020.6,332.3,2.8,4.0,327.3,0.00,1.3,9.2,"22:45:44",1
"23/03/05","23:00",0.0,4.6,79.1,1020.6,331.9,3.1,4.3,331.1,0.00,1.3,9.1,"22:58:40",1
"23/03/05","23:10",0.0,4.4,79.8,1020.1,335.6,3.2,4.5,337.1,0.00,1.3,9.1,"23:05:16",1
"23/03/05","23:20",0.0,4.2,80.7,1020.1,337.2,3.0,4.4,344.9,0.00,1.2,9.0,"23:15:18",1
"23/03/05","23:30",0.0,4.2,81.6,1019.9,336.3,2.8,4.8,340.7,0.00,1.4,9.0,"23:20:32",1
"23/03/05","23:40",0.0,4.1,82.4,1019.7,341.3,3.1,4.1,336.8,0.00,1.4,8.8,"23:31:52",1
"23/03/05","23:50",0.0,3.9,83.0,1020.1,335.6,2.8,4.0,338.7,0.00,1.3,8.6,"23:48:00",1
"23/03/05","24:00",0.0,3.8,83.6,1019.9,341.8,3.1,4.4,340.2,0.00,1.3,8.8,"23:55:36",1
